www.pogodaiklimat.ru

Погода и климат >> Архив погоды >> Казахстан >> Жангизтобе


ПОГОДА в Жангизтобе

  • Прогноз погоды в Жангизтобе
  • Монитор погоды в Жангизтобе
  • Климат города

АРХИВ ПОГОДЫ в Жангизтобе

Время (UTC), дата Ветер
(напр.,м/с)
 
Видим.   Явления Облачность Т
(С)
Тd
(С)
f
(%)
Тe
(С)
Тes
(С)
Комфортность P
(гПа)
Po
(гПа)
Тmin
(С)
Tmax
(С)
R
(мм)
R24
(мм)
S
(см)
03 14.10 штиль 0 50 км ясно +0.6 -2.4 80 -0 +1 1023.3 967.5
06 14.10 ЮВ 2 50 км ясно +13.6 -4.7 28 +13 +19 1019.5 966.3 -5.0
09 14.10 ЮВ 4 50 км ясно +16.2 -5.4 22 +16 +18 1017.3 964.7
12 14.10 ЮВ 4 50 км ясно +12.0 -6.1 28 +10 +10 1017.8 964.5
15 14.10 ЮВ 3 н/о ясно +8.4 -5.9 36 +7 +7 1018.9 964.8 +16.7
18 14.10 ЮЗ 1 н/о ясно +7.5 -4.1 44 +7 +7 1018.3 964.1 +16.7
21 14.10 Ю 11
{17}
н/о ясно +7.6 -5.6 39 +3 +3 1016.9 962.7
00 15.10 Ю 9 н/о 8/0
[Ac As]
+6.9 -5.5 41 +2 +2 1017.4 963.1
03 15.10 Ю 7 50 км 9/0
[Ac As]
+10.0 -6.9 30 +7 +7 1017.3 963.6
06 15.10 ЮВ 18-20
{22}
50 км 10/10 1000 м
[Sc]
+12.6 -5.8 27 +9 +9 1016.4 963.2 +6.7
09 15.10 ЮВ 18-20
{22}
50 км 8/8 1000 м
[Sc]
+15.4 -4.4 25 +13 +13 1015.2 962.6
12 15.10 ЮВ 16-19
{21}
50 км 8/8 1000 м
[Sc]
+13.0 -0.3 40 +9 +9 1016.3 963.0
15 15.10 ЮВ 7
{21}
н/о 8/8 1000 м
[Sc]
+8.5 -5.7 36 +5 +5 1018.0 963.9 +15.7
18 15.10 Ю 2 н/о 8/8 1000 м
[Sc]
+7.7 -4.6 41 +6 +6 1018.9 964.7 +15.7
21 15.10 З 3 н/о 3/3 1000 м
[Sc]
+3.4 +0.8 83 -1 -1 1019.8 964.7
00 16.10 ЮЗ 2 н/о 3/3 1000 м
[Sc]
+1.6 -0.3 87 -2 -2 1020.2 964.8
03 16.10 штиль 0 50 км ясно +5.3 +0.2 70 +5 +6 1020.3 965.6
06 16.10 В 2 50 км ясно +13.0 +1.0 44 +13 +18 1018.0 964.8 +1.3
09 16.10 СВ 1 50 км ясно +16.6 +0.6 34 +18 +21 1016.1 963.7
12 16.10 СЗ 2 50 км 6/0
[Ci fib]
+13.0 +0.6 43 +13 +13 1017.3 964.2
15 16.10 штиль 0 н/о 4/0
[Ac As]
+6.7 +0.5 65 +6 +6 1020.4 965.9 +17.0
18 16.10 З 1 н/о 3/0
[Ac As]
+5.3 -0.4 67 +4 +4 1020.8 966.0 +17.0
21 16.10 Ю 1 н/о 3/0
[Ac As]
+1.4 -1.1 83 -0 -0 1021.5 965.9
00 17.10 штиль 0 н/о 3/0
[Ac lent]
-0.2 -1.6 90 -1 -1 1021.8 965.9
03 17.10 Ю 1 50 км 10/0
[Ac As]
+2.0 -1.0 80 0 +1 1021.5 966.1
06 17.10 СВ 1 50 км 10/3 1000 м
[Sc Ci fib]
+11.2 +0.2 47 +11 +15 1019.1 965.5 -0.4
09 17.10 СВ 1 50 км 10/0
[Ci]
+15.2 -0.5 34 +16 +19 1016.4 963.7
12 17.10 С 2 50 км 8/3 1000 м
[Sc Ac cast]
+12.5 +0.2 43 +12 +12 1016.7 963.5
15 17.10 Ю 2 н/о 3/0
[Ac lent]
+4.6 +0.8 76 +2 +2 1018.3 963.5 +16.2
18 17.10 ЮЗ 2 н/о 8/0
[Ac As]
+3.2 -0.2 78 0 0 1016.7 961.8 +16.2
21 17.10 Ю 1 н/о 8/0
[Ac As]
+2.5 +0.1 84 +1 +1 1015.6 960.6
00 18.10 Ю 1 н/о 9/0
[Ac As Ci fib]
+1.7 -0.2 87 -0 -0 1014.5 959.4
03 18.10 Ю 2 50 км 8/0
[Ac As Ci fib]
+5.1 +2.5 83 +3 +3 1013.3 958.9
06 18.10 Ю 3 50 км 8/0
[Ac As Ci fib]
+18.0 -3.1 24 +18 +21 1009.3 957.4 +1.4
09 18.10 СВ 3 50 км 8/0
[Ac As Ci fib]
+19.5 -2.9 22 +20 +21 1007.7 956.2
12 18.10 В 1 50 км 9/0
[Ac As Ci fib]
+15.0 +1.6 40 +16 +16 1009.2 956.8
15 18.10 Ю 2 н/о 3/0
[Ac As]
+12.8 +0.7 44 +12 +12 1010.5 957.7 +20.0
18 18.10 ЮВ 4-19
{22}
н/о 8/8 1000 м
[Sc]
+8.5 -2.5 46 +3 +3 1014.9 961.0 +20.0
21 18.10 Ю 6
{21}
н/о слабый ливневой дождь 10/10 1000 м
[Cb calv]
+7.7 +1.4 64 +4 +4 1020.2 965.9
00 19.10 Ю 7 н/о {ливн. осадки} 10/10 1000 м
[Cb calv]
+6.5 +2.7 77 +2 +2 1022.0 967.4
03 19.10 Ю 2 50 км 8/8 1000 м
[Sc]
+6.3 +2.5 77 +4 +4 1023.3 968.6
06 19.10 Ю 8 50 км 4/4 1000 м
[Sc]
+10.8 +2.3 56 +7 +8 1021.0 967.3 +5.8 2
09 19.10 Ю 12 50 км 8/8 1000 м
[Sc diur, vesp]
+9.3 +2.6 63 +4 +4 1019.9 966.0
12 19.10 ЮЗ 9
{17}
10 км слабый ливневой дождь 10/10 1000 м
[Cb calv]
+7.1 +2.4 72 +2 +2 1020.9 966.5
15 19.10 ЮЗ 8 н/о слабый ливневой дождь 10/10 1000 м
[Cb calv]
+6.3 +2.8 78 +1 +1 1019.5 965.0 +11.3
18 19.10 Ю 10 н/о {ливн. осадки} 10/10 1000 м
[Cb calv]
+6.5 +1.4 70 +1 +1 1018.8 964.4 +11.3 0.0
21 19.10 Ю 6 н/о 6/6 1000 м
[Sc]
+6.1 +1.2 71 +2 +2 1019.2 964.7
00 20.10 ЮЗ 6 н/о 10/10 1000 м
[Sc]
+6.3 +0.8 68 +2 +2 1020.3 965.8
03 20.10 ЮЗ 7 50 км 10/10 1000 м
[Sc]
+6.0 +1.9 75 +1 +1 1022.0 967.3
06 20.10 Ю 7 50 км {ливн. осадки} 10/10 1000 м
[Cb calv]
+7.1 +3.1 76 +2 +2 1022.5 968.0 +4.0 0.0
09 20.10 Ю 8 50 км 10/10 1000 м
[Sc]
+9.0 +3.3 67 +5 +5 1021.9 967.8
12 20.10 ЮЗ 8 50 км 10/10 1000 м
[Sc]
+8.5 +4.5 76 +4 +4 1022.1 967.9
15 20.10 Ю 8 н/о 10/10 1000 м
[Sc]
+8.6 +3.6 71 +4 +4 1022.0 967.8 +10.2
18 20.10 Ю 8
{18}
н/о 10/10 1000 м
[Sc]
+8.4 +1.5 62 +4 +4 1021.7 967.5 +10.2 0.6
21 20.10 ЮВ 7 н/о 10/10 1000 м
[Sc]
+7.5 +3.6 76 +3 +3 1021.4 967.1
00 21.10 ЮВ 8 н/о 10/10 1000 м
[Sc]
+7.1 +3.1 76 +2 +2 1019.9 965.6

 

Местоположение метеостанции Жангизтобе (Восточно-Казахстанская область, Казахстан): широта 49.22 долгота 81.22 высота над уровнем моря 455 м.

В архиве по умолчанию представлена погода в Жангизтобе за последнюю неделю. Архивные данные за месяц целиком и за предыдущие месяцы, начиная с января 2011 года, Вы можете получить, выбрав интересующий диапазон дат из раскрывающегося списка и нажав кнопку "Ввод!".

Внимание! Время в таблицах - всемирное. Для получения местного времени необходимо прибавить поправку, которая в Жангизтобе равна 6 ч.

Смотрите также архив погоды в соседних городах и на ближайших метеорологических станциях:

Погода в Кентерлау (Восточно-Казахстанская область, Казахстан) (29 км)
Погода в Шаре (Восточно-Казахстанская область, Казахстан) (42 км)
Погода в Шалабае (Восточно-Казахстанская область, Казахстан) (57 км)
Погода в Кокпектах (Восточно-Казахстанская область, Казахстан) (99 км)
Погода в Кайсенова (Восточно-Казахстанская область, Казахстан) (117 км)
Погода в Таврии (Восточно-Казахстанская область, Казахстан) (121 км)
Погода в Первомайском (Восточно-Казахстанская область, Казахстан) (130 км)
Погода в Шульбинске (Восточно-Казахстанская область, Казахстан) (130 км)
Погода в Глубоком (Восточно-Казахстанская область, Казахстан) (130 км)
Погода в Усть-Каменогорске (Восточно-Казахстанская область, Казахстан) (131 км)

Пояснения к столбцам:

Ветер - указаны скорость ветра в м/с - средняя за 10 мин, порывы в срок и между сроками (в фигурных скобках) и направление, откуда дует ветер: С - северный, СВ - северо-восточный, В - восточный, ЮВ - юго-восточный, Ю - южный, ЮЗ - юго-западный, З - западный, СЗ - северо-западный.
Видимость - горизонтальная дальность видимости в метрах или километрах. При видимости от 1 до 10 км при отсутствии осадков обычно наблюдается дымка, при ухудшении видимости до 1 км и менее - туман. В сухую погоду видимость может ухудшаться дымом, пылью или мглою.
Явления - указаны атмосферные явления, наблюдавшиеся в срок или в последний час перед сроком; фигурными скобками обозначены явления, наблюдавшиеся между сроками (за 1-3 часа до срока); квадратными скобками обозначены град или гололедные отложения с указанием их диаметра в мм.
Облачность - указаны через наклонную черту общая и нижняя облачность в баллах и высота нижней границы облаков в метрах; квадратными скобками обозначены формы облаков: Ci - перистые, Cs - перисто-слоистые, Cc - перисто-кучевые, Ac - высококучевые, As - высокослоистые, Sc - слоисто-кучевые, Ns - слоисто-дождевые, Cu - кучевые, Cb - кучево-дождевые. Подробнее классификацию облаков см. в Атласе облаков (PDF).
T - Температура воздуха - температура, измеренная на высоте 2 м над землей.
Td - Температура точки росы - температура, при понижении до которой содержащийся в воздухе водяной пар достигнет насыщения.
f - Относительная влажность воздуха - влажноcть воздуха, измеренная на высоте 2 м над землей.
Te - Эффективная температура - температура, которую ощущает одетый по сезону человек в тени. Характеристика душности погоды. При расчете учитывается влияние влажности воздуха и скорости ветра на теплоощущения человека.
Tes - Эффективная температура на солнце - температура, которую ощущает человек, с поправкой на солнечный нагрев. Характеристика знойности погоды. Зависит от высоты солнца над горизонтом, облачности и скорости ветра. Ночью, в пасмурную погоду, а также при ветре 12 м/с и более поправка равна нулю.
P - Атмосферное давление - приведенное к уровню моря атмосферное давление.
Po - Атмосферное давление - измеренное на уровне метеостанции атмосферное давление.
Tmin - Минимальная температура - минимум температуры воздуха на высоте 2 м над землей.
Tmax - Максимальная температура - максимум температуры воздуха на высоте 2 м над землей.
R - Количество осадков - Количество выпавших осадков за период времени, мм. При наведении курсора мыши на число - период времени, за который выпало указанное количество осадков.
R24 - Количество осадков - Количество выпавших осадков за 24 часа, мм.
S - Снежный покров - Высота снежного покрова, см. При наведении курсора мыши на число - состояние снежного покрова и степень покрытия местности в баллах.